Weather History for Baker, OR

Change the Weather History Date:

Wednesday, November 7, 2012

  Actual Average Record
Temperature  
Mean Temperature 34 °F 36 °F  
Max Temperature 46 °F 48 °F 69 °F (1976)
Min Temperature 22 °F 24 °F 8 °F (2003)
Degree Days  
Heating Degree Days 31 29  
Month to date heating degree days 151 192  
Since 1 July heating degree days 1122 1271  
Cooling Degree Days 0 0  
Month to date cooling degree days 0 0  
Year to date cooling degree days 184 169  
Moisture  
Dew Point 31 °F    
Average Humidity 79    
Maximum Humidity 100    
Minimum Humidity 58    
Precipitation  
Precipitation 0.03 in 0.03 in 0.36 in (1985)
Month to date precipitation 0.03 0.20  
Year to date precipitation 6.95 8.45  
Sea Level Pressure  
Sea Level Pressure 30.05 in    
Wind  
Wind Speed 7 mph (NNW)    
Max Wind Speed 24 mph    
Max Gust Speed 29 mph    
Visibility 10 miles    
Events Rain    
T = Trace of Precipitation, MM = Missing Value Source: NWS Daily Summary

Daily Weather History Graph

Daily Weather History Graph

Search for Another Location

Airport:

Trip Planner

Search our weather history database for the weather conditions in past years. The results will help you decide how hot, cold, wet, or windy it might be!

Date:

Astronomy

Nov. 07, 2012 Rise Set
Actual Time 6:38 AM PST 4:30 PM PST
Civil Twilight 6:07 AM PST 5:02 PM PST
Nautical Twilight 5:32 AM PST 5:36 PM PST
Astronomical Twilight 4:58 AM PST 6:11 PM PST
Moon No Moon Rise 12:58 PM PST (11/7)
Length of Visible Light 10h 54m
Length of Day
9h 52m
Last Quarter, 42% of the Moon is Illuminated
Nov 7
Last Quarter
Nov 13
New
Nov 20
First Quarter
Nov 28
Full
Dec 6
Last Quarter

Hourly Weather History & Observations

Time (PST) Temp. Windchill Dew Point Humidity Pressure Visibility Wind Dir Wind Speed Gust Speed Precip Events Conditions
12:53 AM 32.0 °F - 30.9 °F 96% 30.01 in 10.0 mi Calm Calm - N/A   Clear
1:53 AM 33.1 °F - 32.0 °F 96% 29.98 in 10.0 mi Calm Calm - N/A   Clear
2:53 AM 32.0 °F - 30.9 °F 96% 29.99 in 8.0 mi Calm Calm - N/A   Clear
3:53 AM 33.1 °F - 33.1 °F 100% 29.99 in 10.0 mi Calm Calm - N/A   Clear
4:53 AM 34.0 °F - 33.1 °F 96% 30.01 in 10.0 mi Calm Calm - N/A   Scattered Clouds
5:53 AM 37.0 °F - 35.1 °F 93% 30.00 in 10.0 mi Calm Calm - N/A   Mostly Cloudy
6:53 AM 39.9 °F 35.1 °F 37.9 °F 93% 30.03 in 10.0 mi North 6.9 mph - N/A   Overcast
7:20 AM 42.8 °F 41.1 °F 39.2 °F 87% 30.03 in 10.0 mi North 3.5 mph - N/A   Overcast
7:53 AM 41.0 °F 32.5 °F 37.0 °F 86% 30.07 in 10.0 mi NNW 17.3 mph 21.9 mph 0.00 in Rain Light Rain
8:08 AM 39.2 °F 30.8 °F 35.6 °F 87% 30.05 in 10.0 mi NNW 15.0 mph 24.2 mph 0.00 in Rain Light Rain
8:45 AM 39.2 °F 29.0 °F 35.6 °F 87% 30.06 in 10.0 mi NNW 21.9 mph 28.8 mph 0.01 in Rain Light Rain
8:53 AM 39.0 °F 29.3 °F 35.1 °F 86% 30.10 in 10.0 mi NNW 19.6 mph 28.8 mph 0.01 in Rain Light Rain
9:53 AM 39.9 °F 30.5 °F 34.0 °F 79% 30.13 in 10.0 mi NNW 19.6 mph 25.3 mph 0.02 in   Overcast
10:00 AM 41.0 °F 34.3 °F 33.8 °F 76% 30.08 in 10.0 mi NNW 11.5 mph 25.3 mph N/A   Overcast
10:53 AM 42.1 °F 36.1 °F 34.0 °F 73% 30.12 in 10.0 mi NNW 10.4 mph - 0.00 in   Overcast
11:53 AM 44.1 °F 36.5 °F 32.0 °F 63% 30.09 in 10.0 mi NW 17.3 mph 21.9 mph N/A   Overcast
12:53 PM 45.0 °F 38.9 °F 30.0 °F 56% 30.08 in 10.0 mi NNW 12.7 mph 20.7 mph N/A   Mostly Cloudy
1:53 PM 45.0 °F 38.2 °F 30.9 °F 58% 30.08 in 10.0 mi NNW 15.0 mph 20.7 mph N/A   Clear
2:53 PM 44.1 °F 37.1 °F 30.9 °F 60% 30.08 in 10.0 mi NW 15.0 mph - N/A   Scattered Clouds
3:53 PM 41.0 °F 37.1 °F 30.0 °F 65% 30.09 in 10.0 mi NNW 5.8 mph - N/A   Clear
4:53 PM 39.0 °F - 28.0 °F 65% 30.07 in 10.0 mi Calm Calm - N/A   Partly Cloudy
5:53 PM 35.1 °F 27.9 °F 28.0 °F 76% 30.07 in 10.0 mi West 9.2 mph - N/A   Clear
6:53 PM 33.1 °F 26.9 °F 28.0 °F 82% 30.05 in 10.0 mi West 6.9 mph - N/A   Clear
7:53 PM 30.0 °F - 27.0 °F 88% 30.04 in 10.0 mi Calm Calm - N/A   Clear
8:53 PM 25.0 °F - 23.0 °F 92% 30.03 in 10.0 mi Calm Calm - N/A   Clear
9:53 PM 23.0 °F - 21.0 °F 92% 30.01 in 10.0 mi Calm Calm - N/A   Clear
10:53 PM 25.0 °F - 23.0 °F 92% 29.97 in 10.0 mi Calm Calm - N/A   Clear
11:53 PM 23.0 °F - 21.9 °F 96% 29.95 in 10.0 mi Calm Calm - N/A   Clear